#timestamp,LO_Frequency,Hit,StdDev 
1567393215.4,286047001.4,N
1567393235.2,286047001.4,N
1567393255.1,286047002.1,N
1567393256.0,286047002.1,N
1567393275.8,286047001.9,N
1567393295.6,286047004.0,Y
1567393315.5,286047001.9,P
1567393335.3,286046999.9,N
1567393355.2,286046999.7,N
1567393375.9,286047001.0,N
1567393395.7,286047000.6,N
1567393415.6,286046999.3,N
1567393435.4,286046998.5,N
1567393455.3,286046998.4,N
1567393475.1,286046998.4,N
1567393476.0,286046998.4,N
1567393495.8,286046998.7,N
1567393515.7,286046998.7,N
1567393535.5,286046998.5,N
1567393555.3,286047000.1,N
1567393575.2,286047001.3,N
1567393595.0,286047001.8,N
1567393595.9,286047001.8,N
1567393615.8,286046999.8,N
1567393635.6,286046999.7,N
1567393655.4,286047001.5,N
1567393675.3,286047002.5,N
1567393695.1,286047002.6,N
1567393715.9,286047002.0,N
1567393735.7,286047001.8,N
1567393755.5,286047001.5,N
1567393775.4,286047002.8,N
1567393795.2,286047002.8,N
1567393815.0,286046999.8,N
1567393815.9,286046999.8,N
1567393835.8,286047000.2,N
1567393855.6,286047000.1,N
1567393875.5,286047002.3,N
1567393895.3,286047002.4,N
1567393915.1,286047000.2,N
1567393935.9,286047000.4,N
1567393955.7,286046999.7,N
1567393975.6,286047002.5,N
1567393995.4,286047004.3,N
1567394015.2,286047003.2,N
1567394035.1,286047001.4,N
1567394036.0,286047001.4,N
1567394055.8,286047004.4,Y
1567394075.6,286047001.7,P
1567394095.5,286047002.3,P
1567394115.3,286047001.6,P
1567394135.2,286047002.4,Y
1567394155.0,286047000.5,P
1567394155.9,286047000.5,N
1567394175.7,286047001.0,N
1567394195.6,286046998.2,Y
1567394215.4,286046998.9,P
1567394235.3,286046998.3,N
1567394255.1,286046999.4,N
1567394275.8,286046999.2,N
1567394295.7,286046997.1,Y
1567394315.5,286046998.9,P
1567394335.4,286046997.6,P
1567394355.2,286046996.8,P
1567394375.0,286046997.0,N
1567394375.9,286046997.0,N
1567394395.8,286046996.7,Y
1567394415.6,286046998.2,P
1567394435.5,286047001.2,P
1567394455.3,286047001.0,N
1567394475.1,286046998.9,N
1567394495.9,286046998.6,N
1567394515.7,286047001.1,N
1567394535.5,286047001.1,N
1567394555.4,286046998.6,N
1567394575.2,286046996.5,N
1567394595.1,286046999.0,N
1567394596.0,286046999.0,N
1567394615.8,286046999.5,N
1567394635.6,286046996.9,N
1567394655.5,286046996.6,N
1567394675.3,286046999.4,N
1567394695.2,286046999.0,N
1567394715.9,286046999.0,N
1567394735.7,286046998.4,N
1567394755.6,286046998.1,N
1567394775.4,286046998.2,N
1567394795.2,286046998.4,N
1567394815.1,286046999.1,N
1567394816.0,286046999.1,N
1567394835.8,286046996.5,N
1567394855.7,286046996.9,N
1567394875.5,286046996.9,N
1567394895.4,286046995.0,Y
1567394915.2,286046996.8,P
1567394935.0,286046998.8,N
1567394935.9,286046998.8,N
1567394955.8,286046999.4,N
1567394975.6,286046999.4,N
1567394995.4,286046999.1,N
1567395015.3,286046997.1,Y
1567395035.1,286046999.0,P
1567395055.9,286046998.4,P
1567395075.7,286046998.6,P
1567395095.5,286047000.9,Y
1567395115.4,286047001.5,P
1567395135.2,286047001.7,N
1567395155.1,286047001.3,N
1567395156.0,286047001.3,N
1567395175.8,286047004.0,Y
1567395195.6,286047002.5,P
1567395215.5,286047001.5,N
1567395235.3,286047002.8,P
1567395255.2,286046999.7,N
1567395275.9,286047002.7,N
1567395295.7,286047002.3,N
1567395315.6,286047002.4,N
1567395335.4,286047002.6,N
1567395355.3,286047002.2,N
1567395375.1,286047001.5,N
1567395376.0,286047001.5,N
1567395395.8,286047001.5,N
1567395415.7,286047003.9,Y
1567395435.5,286046999.7,P
1567395455.4,286047000.3,N
1567395475.2,286047002.8,P
1567395495.0,286046999.9,N
1567395495.9,286046999.9,N
1567395515.8,286047002.3,N
1567395535.6,286047002.2,N
1567395555.4,286047002.4,N
1567395575.3,286047002.3,N
1567395595.1,286046999.7,N
1567395615.9,286046999.8,N
1567395635.7,286047001.0,N
1567395655.5,286047000.7,N
1567395675.4,286047000.9,N
1567395695.2,286047000.5,N
1567395715.1,286046999.9,N
1567395716.0,286046999.9,N
1567395735.8,286046998.1,N
1567395755.6,286046999.3,N
1567395775.5,286046998.5,N
1567395795.3,286046998.6,N
1567395815.2,286046998.1,N
1567395835.9,286046998.4,N
1567395855.7,286047000.0,N
1567395875.6,286047000.5,N
1567395895.4,286046999.7,N
1567395915.2,286047000.9,N
1567395935.1,286047002.8,N
1567395936.0,286047002.8,N
1567395955.8,286047000.7,N
1567395975.7,286047001.2,N
1567395995.5,286047000.0,N
1567396015.3,286047002.8,N
1567396035.2,286047001.7,N
1567396055.0,286047002.6,N
1567396055.9,286047002.6,N
1567396075.8,286047002.3,N
1567396095.6,286046999.8,N
1567396115.4,286047002.4,N
1567396135.3,286047002.4,N
1567396155.1,286047001.9,N
1567396175.8,286047002.1,N
1567396195.7,286047002.7,N
1567396215.5,286047002.8,N
1567396235.4,286047002.8,N
1567396255.2,286047001.6,N
1567396275.0,286047002.1,N
1567396275.9,286047002.1,N
1567396295.8,286047000.1,N
1567396315.6,286047000.1,N
1567396335.5,286047000.2,N
1567396355.3,286047002.5,N
1567396375.1,286047002.3,N
1567396395.9,286047002.0,N
1567396415.7,286047002.2,N
1567396435.5,286047001.8,N
1567396455.4,286047002.5,N
1567396475.2,286047002.5,N
1567396495.1,286047001.6,N
1567396496.0,286047001.6,N
1567396515.8,286047001.3,N
1567396535.6,286047002.0,N
1567396555.5,286047004.4,Y
1567396575.3,286047000.6,P
1567396595.2,286047000.3,N
1567396615.9,286047000.5,N
1567396635.7,286046999.0,N
1567396655.6,286046999.1,N
1567396675.4,286047001.0,N
1567396695.2,286046999.0,N
1567396715.1,286046997.0,Y
1567396716.0,286046997.0,P
1567396735.8,286046997.8,N
1567396755.7,286046997.2,N
1567396775.5,286046997.2,N
1567396795.3,286046997.3,N
